Погода в Хубли

Индия     15°21′01″N   75°08′14″E
темп.,
°C
ветер,
м/с
пор.,
м/с
влажн.,
%
обл.,
%
осадки,
мм/ч
давл.,
гПа
погр.,
м
21 января, пт
пт2123:30+21зюз33515 0.0 101320
02:30+19з225212 0.0 101211
05:30+18зюз115674 0.0 101211
08:30+22зсз0141100 0.0 101497
11:30+29ссз112666 0.0 10131159
14:30+32ссз45175 0.0 10103039
17:30+31с551626 0.0 10091462
20:30+24зсз232987 0.0 101337
22 января, сб
сб2223:30+20зюз475542 0.0 101395
02:30+18зюз336275 0.0 101239
05:30+18зюз336238 0.0 101123
08:30+20зюз33535 0.0 1013148
11:30+28з33290 0.0 1012936
14:30+31з45200 0.0 10082734
17:30+30з77240 0.0 10071340
20:30+22з611605 0.0 1011224
23 января, вс
вс2323:30+19з49794 0.0 1011154
02:30+17зсз46765 0.0 100982
05:30+16зюз337842 0.0 101021
08:30+19зсз34655 0.0 1012198
11:30+26з44325 0.0 10111054
14:30+30зюз56205 0.0 10072522
17:30+28з77255 0.0 10071559
20:30+20з610695 0.0 1011256
24 января, пн
пн2423:30+17з59945 0.0 1012191
02:30+16з479413 0.0 1010138
05:30+15зсз22935 0.0 101118
08:30+18ссз12765 0.0 1013212
11:30+24ю01435 0.0 10121075
14:30+28юз34300 0.0 10081891
17:30+28юз23300 0.0 10072335
20:30+20з48555 0.0 1011181
25 января, вт
вт2523:30+18з346462 0.0 101172
02:30+17зюз22665 0.0 101015
05:30+16сз22635 0.0 101011
08:30+20ссв22510 0.0 1012199
11:30+26св22310 0.0 10111241
14:30+29з11275 0.0 10072284
17:30+29з21266 0.0 10062452
20:30+21з595466 0.0 1011203